This is the latest recevied weather packets stored in our database for station/object W7SA-12. If no packets are shown the sender has not sent any weather packets the latest 10 day(s).
| Time | Temp. | Humidity | Pressure | Rain* | Wind** | Luminosity | Snow |
|---|---|---|---|---|---|---|---|
| 1777614434 | 16.67° C | 59% | 1013 hPa | 0 mm | - | - | - |
| 1777614237 | 16.67° C | 62% | 1013 hPa | 0 mm | - | - | - |
| 1777614166 | 16.67° C | 59% | 1013 hPa | 0 mm | - | - | - |
| 1777613918 | 16.11° C | 63% | 1013 hPa | 0 mm | - | - | - |
| 1777613866 | 16.67° C | 62% | 1013 hPa | 0 mm | - | - | - |
| 1777613638 | 16.11° C | 65% | 1013 hPa | 0 mm | - | - | - |
| 1777613567 | 16.11° C | 63% | 1013 hPa | 0 mm | - | - | - |
| 1777613337 | 15.56° C | 66% | 1013 hPa | 0 mm | - | - | - |
| 1777613266 | 16.11° C | 65% | 1013 hPa | 0 mm | - | - | - |
| 1777613082 | 15.56° C | 67% | 1013 hPa | 0 mm | - | - | - |
| 1777612966 | 15.56° C | 66% | 1013 hPa | 0 mm | - | - | - |
| 1777612776 | 15.56° C | 67% | 1013 hPa | 0 mm | - | - | - |
| 1777612666 | 15.56° C | 67% | 1013 hPa | 0 mm | - | - | - |
| 1777612514 | 15.56° C | 67% | 1013 hPa | 0 mm | - | - | - |
| 1777612366 | 15.56° C | 67% | 1013 hPa | 0 mm | - | - | - |
| 1777612066 | 15.56° C | 67% | 1013 hPa | 0 mm | - | - | - |
| 1777611997 | 15.56° C | 67% | 1013 hPa | 0 mm | - | - | - |
| 1777611775 | 15° C | 66% | 1013 hPa | 0 mm | - | - | - |
| 1777611767 | 15.56° C | 67% | 1013 hPa | 0 mm | - | - | - |
| 1777611561 | 15.56° C | 66% | 1013 hPa | 0 mm | - | - | - |
| 1777611466 | 15° C | 66% | 1013 hPa | 0 mm | - | - | - |
| 1777611292 | 15.56° C | 64% | 1013 hPa | 0 mm | - | - | - |
| 1777611166 | 15.56° C | 66% | 1013 hPa | 0 mm | - | - | - |
| 1777610868 | 15.56° C | 63% | 1013 hPa | 0 mm | - | - | - |
| 1777610868 | 15.56° C | 64% | 1013 hPa | 0 mm | - | - | - |
* Rain latest hour (hover to see other rain measurements)
** Current wind speed in m/s (hover to see current wind gust speed)